Location: Beadle
(51.4667°N, 109.0000°W)
Time: 18:18:56
(UTC+00:00)

O/OREOS (USA 219) - Pass Details

Date: 03 July 2022
Orbit: 621 x 646 km, 72.0° (Epoch: 22 May)

Event Time Altitude Azimuth Distance (km) Brightness Sun altitude
Rises 07:55:55 0° 324° (NW) 2,967 ? -15.2°
Reaches altitude 10° 07:58:26 10° 313° (NW) 2,054 ? -15.1°
Maximum altitude 08:02:23 29° 254° (WSW) 1,197 ? -15.0°
Enters shadow 08:04:11 22° 217° (SW) 1,416 ? -15.0°
